RH
37 54 65 61 64 65 62 68 67 66 67 66 73 71 63 58 57 62 63 60 50 44 60 72 71 69 62 60 52 40 42 44 44 46 47 49 49 48 49 50 50 49 51 53 52 50 49 51 53 53 54 56 59 55 39 25 16 7 3 5 4 4 6 5 5 6 6 6 6 7 7 6 7 6 6 5 5 5 5 7 8 7 8 10 11 13
41 54 62 56 61 62 63 74 74 69 69 67 65 61 61 59 55 58 59 61 51 42 64 79 68 58 51 52 49 43 48 47 44 47 47 48 49 49 49 51 51 50 51 52 52 51 49 51 53 53 54 57 60 58 43 25 14 7 4 5 5 4 6 5 6 7 7 8 7 8 7 7 7 6 6 5 5 5 5 6 8 8 9 9 10 10
47 52 52 51 57 56 61 77 74 69 69 65 65 61 55 55 60 66 63 65 60 47 63 77 64 52 49 52 51 46 50 46 40 44 46 47 49 50 49 51 53 52 52 53 52 52 50 51 53 52 55 59 61 60 46 22 9 6 4 5 5 5 6 5 6 7 7 8 8 8 8 7 7 7 6 6 5 5 5 5 5 6 7 8 10 11
45 46 45 48 54 52 56 67 69 70 66 61 64 58 55 57 54 58 63 68 69 57 59 68 63 60 60 64 62 49 45 45 42 43 47 48 48 50 51 52 54 53 53 54 53 53 50 51 54 54 57 60 60 60 48 22 5 4 5 5 5 5 6 6 6 7 8 8 8 8 8 7 7 7 6 6 5 5 5 5 5 5 5 6 8 10
48 41 42 53 63 64 56 58 67 65 62 71 73 53 51 59 49 53 66 68 69 63 59 61 63 72 75 72 69 56 46 46 47 49 50 48 49 52 51 52 55 55 54 54 55 53 51 51 55 57 58 60 60 58 52 29 5 3 6 4 6 6 6 7 7 8 8 8 8 8 8 7 7 7 6 6 5 5 5 5 6 5 6 6 6 7
47 36 42 55 69 73 59 56 61 58 64 78 76 54 43 53 54 61 68 65 70 63 53 57 59 68 75 69 69 64 56 52 51 54 53 48 49 50 49 52 56 56 55 55 56 53 51 53 57 59 58 59 60 56 56 39 9 3 7 5 6 6 6 7 7 8 8 8 9 8 8 8 7 7 6 6 6 5 6 5 6 6 6 7 7 8
46 40 50 61 67 67 57 58 57 62 78 69 59 61 56 59 57 58 62 56 59 54 50 65 61 58 64 59 66 69 61 62 60 58 54 46 46 45 46 53 56 57 56 55 57 53 51 54 57 60 58 60 61 57 60 46 12 2 6 5 6 6 7 8 8 9 8 8 9 9 9 8 8 8 6 6 6 5 6 6 6 6 7 8 9 10
45 49 58 62 61 58 52 53 52 62 74 53 52 70 64 58 51 56 63 50 53 56 59 79 68 59 67 59 66 70 57 66 71 67 60 44 39 41 46 54 55 56 57 55 57 53 52 56 57 59 60 62 62 59 62 46 12 2 7 6 6 6 7 8 8 9 9 9 10 9 9 9 8 8 7 6 6 6 6 6 6 7 7 8 9 11
43 52 55 53 52 53 46 46 52 57 60 52 61 70 59 59 62 68 68 59 68 62 59 81 66 55 70 64 68 68 54 64 71 71 65 42 36 42 45 54 56 55 57 56 57 53 53 56 57 59 61 62 63 61 63 46 14 3 6 6 6 7 7 8 9 9 9 9 10 10 10 9 9 8 7 7 6 6 6 6 7 7 8 8 9 11
40 44 48 52 51 50 48 53 61 56 53 55 63 68 68 72 73 73 68 67 80 68 60 76 60 53 70 65 65 59 50 63 68 71 65 39 36 45 47 53 55 55 57 56 56 54 54 56 57 60 61 62 63 63 65 50 21 6 5 6 7 7 7 8 9 9 10 10 10 11 10 10 10 8 8 7 6 6 6 6 7 7 8 9 10 11
42 43 46 49 43 43 50 55 58 55 51 55 67 76 72 69 75 83 82 78 78 72 75 78 57 55 69 67 66 57 52 63 62 67 65 42 39 46 49 54 54 55 57 56 55 53 54 57 57 59 61 62 64 65 68 57 29 9 7 7 6 7 7 8 9 9 10 10 10 11 11 10 10 9 8 7 7 7 6 7 7 8 9 9 10 12
45 46 44 42 38 42 49 46 47 55 54 53 68 72 55 56 69 77 87 87 69 59 72 78 61 56 65 66 62 58 67 75 62 60 65 52 44 46 49 54 55 57 56 54 55 53 55 56 56 59 60 62 65 66 71 66 41 18 11 8 6 7 7 7 9 9 10 10 10 11 11 11 11 10 9 8 7 7 7 8 9 9 10 10 10 12
45 47 46 43 39 40 50 53 52 61 60 54 68 71 62 68 65 59 80 88 67 53 61 66 56 54 62 59 52 53 64 70 58 50 52 48 44 46 51 54 56 58 55 53 54 53 55 55 55 59 60 61 67 68 71 71 52 27 16 10 6 7 7 7 9 9 10 11 10 12 12 12 12 10 10 8 7 8 7 8 9 10 11 11 12 13
50 55 52 45 37 34 47 55 50 55 57 53 66 74 74 79 67 63 80 75 59 59 59 58 58 60 61 55 58 62 53 46 41 36 40 44 45 48 51 55 59 58 55 53 53 53 54 55 56 58 60 63 68 70 71 74 61 39 23 10 5 7 7 8 10 9 10 11 10 12 12 12 12 11 10 9 8 8 8 8 9 10 12 12 13 14
49 44 40 39 34 34 44 46 42 50 54 55 69 73 67 69 62 62 75 66 60 69 65 55 52 52 53 51 56 56 42 36 37 38 43 44 46 50 51 56 60 59 56 53 53 54 53 56 57 57 61 64 69 71 72 77 71 51 30 11 4 7 7 7 10 9 10 11 11 12 13 13 12 12 11 10 9 9 8 9 9 10 12 12 13 14
50 37 43 48 36 36 43 43 48 55 53 59 73 70 61 67 67 65 74 72 69 80 85 74 57 50 52 52 56 58 49 44 42 42 46 44 43 49 52 56 59 59 58 53 51 54 54 56 58 58 63 66 70 73 74 82 81 59 31 10 4 7 7 8 10 10 10 11 12 13 13 14 13 13 12 11 11 10 9 9 9 10 11 12 13 13
45 41 58 59 39 39 43 41 48 48 44 59 71 63 55 65 73 69 70 75 76 77 78 73 64 60 55 53 67 76 64 56 54 46 42 41 43 49 51 54 57 58 58 53 51 54 55 57 58 60 65 68 72 76 78 86 82 56 27 9 5 7 7 8 9 10 11 11 12 13 13 14 13 13 13 12 12 11 10 10 10 10 11 12 13 13
44 48 63 59 39 42 45 39 45 47 46 56 61 57 57 64 75 73 67 78 90 85 73 68 71 69 59 57 66 69 59 59 62 53 44 42 44 49 51 51 55 58 55 52 53 54 56 58 58 62 67 69 74 79 82 88 80 50 24 9 5 8 8 8 10 10 11 12 12 13 14 14 14 14 14 14 13 12 12 12 11 12 13 13 14 14
46 48 59 59 46 47 47 39 45 51 50 51 48 50 56 59 66 70 66 68 76 80 76 74 79 72 66 69 59 46 49 55 57 58 58 54 48 47 50 51 55 58 53 51 53 55 57 58 58 64 69 72 78 82 85 91 79 46 20 8 5 8 8 8 10 10 11 12 12 14 15 14 15 15 15 15 15 15 14 14 14 15 15 16 15 15
48 43 47 57 55 50 46 42 49 53 49 50 51 55 63 63 63 63 65 69 70 77 81 76 75 66 67 81 63 37 44 53 54 61 62 56 50 47 49 52 56 57 52 51 53 55 58 58 60 66 71 75 82 85 88 92 75 40 16 7 5 8 9 8 10 10 11 12 13 14 15 15 15 16 16 16 17 17 17 17 17 17 18 19 18 18
54 43 44 62 61 49 47 49 56 61 58 57 55 58 61 61 65 62 64 75 76 81 90 86 77 60 51 64 56 37 44 54 54 59 59 52 47 45 48 52 55 55 52 51 53 56 58 58 63 69 73 79 84 85 91 91 66 35 17 7 4 8 8 8 10 10 11 13 13 15 15 15 16 16 17 18 18 19 19 19 20 20 21 21 21 21
54 48 50 62 54 47 57 60 58 63 71 68 57 56 61 63 68 62 63 79 79 77 87 86 77 60 46 52 51 42 49 53 50 54 56 50 42 42 48 51 54 54 51 51 54 56 58 60 65 71 74 81 85 86 93 86 58 36 24 7 3 9 8 8 11 10 11 13 13 15 15 15 17 17 18 19 19 21 22 22 23 24 24 25 24 24
53 55 56 57 46 44 56 54 47 55 66 66 56 58 71 76 73 63 68 82 77 74 83 85 81 66 50 56 58 49 49 46 40 44 47 43 41 45 50 51 53 54 50 52 55 56 60 62 66 72 76 81 84 85 90 83 60 45 33 10 3 9 8 8 11 10 12 14 13 15 16 16 18 18 19 20 21 23 24 25 27 27 27 28 27 27
53 50 50 54 52 53 59 56 53 56 55 52 53 62 70 75 78 78 82 82 74 77 82 85 89 69 47 58 59 46 45 41 34 37 40 41 45 48 51 53 53 53 51 53 56 58 61 63 67 73 77 80 84 85 89 87 75 60 38 13 4 8 8 9 11 11 13 13 14 16 16 17 18 18 20 21 22 25 26 27 29 29 30 31 30 30
45 43 45 48 45 46 57 62 58 55 54 53 62 72 72 74 79 79 79 74 71 76 77 84 91 62 41 58 58 43 44 41 33 35 37 42 49 50 52 54 52 52 53 54 58 60 61 64 68 74 78 80 83 86 89 92 88 70 40 13 4 7 9 10 11 12 13 13 14 16 16 18 19 20 21 22 24 26 27 29 31 32 33 33 33 33
47 49 45 40 38 36 38 43 41 43 52 58 65 69 68 72 71 65 69 72 71 78 79 81 79 47 29 44 45 38 43 40 34 36 37 42 50 53 54 54 52 54 55 56 59 61 62 66 69 74 78 79 82 87 89 94 94 74 38 11 5 7 9 10 11 12 13 13 14 15 16 18 20 21 23 23 25 27 27 30 33 34 36 36 36 36
62 62 53 49 51 43 33 33 34 37 42 46 54 62 66 73 71 69 78 79 78 86 83 71 64 50 40 41 36 34 37 37 37 38 37 42 50 55 56 54 54 56 56 59 60 61 64 67 70 74 76 78 83 87 89 95 94 67 28 7 5 8 9 11 12 13 13 14 15 15 17 19 20 22 24 24 25 27 28 31 34 37 39 40 40 40
60 54 58 63 58 48 42 40 39 43 45 42 49 59 67 77 77 70 71 72 73 76 67 58 63 63 50 39 35 35 34 36 40 38 39 44 50 56 58 55 57 58 58 60 61 62 65 67 70 73 74 78 84 87 90 96 87 52 17 5 6 7 10 12 12 13 13 14 15 16 17 20 21 22 23 25 26 27 28 32 35 40 42 43 44 44
49 45 59 68 62 56 55 53 48 50 56 55 56 58 60 73 80 68 60 66 68 61 51 50 59 57 46 38 36 36 36 38 40 38 41 46 51 58 60 58 59 59 60 62 62 64 66 67 70 72 72 79 84 87 92 91 67 30 8 5 6 7 10 12 12 13 14 15 16 16 18 20 21 22 23 25 26 27 30 33 38 41 43 45 47 46
46 59 74 69 62 55 49 54 59 62 67 64 59 58 58 65 74 70 62 62 63 59 52 49 55 54 46 43 40 36 35 38 39 41 44 47 53 58 60 60 61 60 61 63 62 64 65 66 69 69 72 80 84 86 92 78 42 13 5 6 6 7 11 12 13 14 14 16 17 17 19 21 21 22 23 25 26 27 31 35 38 42 44 46 49 49
37 61 86 71 55 52 51 58 63 63 69 62 50 56 64 65 69 72 70 66 66 68 62 58 66 66 50 41 42 39 37 41 44 45 45 47 53 59 61 61 61 61 63 62 62 64 64 65 67 67 73 81 81 85 86 62 26 8 6 6 6 8 11 12 14 14 14 16 17 17 20 21 22 23 24 25 27 28 31 35 37 41 44 47 48 49
39 58 84 68 49 53 59 61 58 53 59 61 54 61 71 72 74 76 76 74 69 66 64 63 67 60 42 37 42 40 39 46 47 45 45 49 53 59 62 61 58 60 62 61 62 63 62 63 65 68 76 80 80 86 78 47 20 11 8 6 7 8 10 13 14 15 15 17 17 18 20 21 22 23 24 26 28 28 31 34 37 41 44 47 48 48
58 56 65 57 50 62 65 60 58 47 38 42 55 67 71 70 73 72 71 74 69 57 55 57 49 38 32 37 44 43 42 45 44 42 46 52 54 57 60 57 54 57 60 60 62 61 59 61 63 68 77 77 78 85 71 36 18 16 10 6 8 8 10 14 15 15 16 16 17 18 20 21 23 24 25 27 28 30 32 34 37 41 43 45 47 48
74 58 58 57 55 69 73 61 51 36 21 29 53 68 60 47 52 57 53 58 64 56 51 50 42 37 40 43 45 45 42 39 40 41 44 49 54 56 56 54 53 55 58 61 62 60 58 59 63 69 76 75 76 80 66 36 20 18 11 7 9 9 11 14 15 15 16 16 17 18 19 21 23 24 27 29 29 31 33 36 38 41 42 44 46 48
81 62 61 65 61 70 76 59 37 29 30 36 49 61 52 39 47 56 49 51 59 59 57 55 49 45 43 41 40 39 36 36 39 40 40 43 50 54 54 54 54 55 59 62 61 59 58 58 62 69 74 74 74 76 67 41 21 16 12 9 10 10 12 14 15 16 16 16 17 18 19 21 23 25 28 29 30 31 34 37 40 41 42 44 47 50
81 69 63 69 68 62 60 49 33 32 40 36 37 52 56 50 52 54 49 48 50 55 60 57 50 46 41 37 35 32 33 41 45 42 37 39 46 52 54 56 56 57 61 63 60 59 57 57 61 69 74 74 74 76 73 50 23 13 12 10 10 11 13 14 15 15 16 16 17 18 19 21 23 25 28 29 30 31 33 37 40 40 42 45 48 52
72 72 59 56 59 53 53 61 54 41 38 37 39 48 50 44 46 50 49 43 39 45 53 50 45 44 40 35 32 32 40 50 52 44 37 39 47 54 57 59 60 61 64 64 60 59 59 58 62 69 73 74 74 77 81 64 33 15 12 11 11 12 13 14 15 15 16 17 17 18 20 21 22 25 28 29 29 30 32 35 38 40 42 45 48 51
58 63 50 40 55 63 56 60 62 45 36 43 48 50 48 43 44 50 52 46 38 31 33 41 46 43 40 38 36 39 50 56 54 44 37 41 50 57 61 62 63 64 65 65 62 60 60 61 64 69 73 74 74 77 84 77 49 24 15 13 12 13 13 14 15 15 16 17 18 18 19 22 24 25 28 30 29 30 32 34 35 38 42 46 49 46
58 73 70 50 60 71 52 48 59 47 34 41 46 47 48 44 41 45 49 50 44 26 19 34 45 39 38 39 38 47 59 61 53 40 34 41 51 57 63 64 64 66 66 65 63 61 61 64 65 69 72 73 74 77 84 84 65 39 24 16 13 14 14 14 14 15 17 18 18 19 20 21 25 26 28 30 29 30 33 33 33 37 41 47 48 39
70 81 82 62 65 75 64 63 71 55 39 40 39 38 45 45 41 46 48 44 36 22 17 30 37 33 32 34 40 56 64 57 46 36 33 40 48 55 62 64 65 67 65 64 64 62 63 65 65 67 71 72 74 78 84 89 79 57 36 21 16 15 14 14 14 14 17 18 18 20 21 22 26 28 29 30 29 30 34 33 32 35 39 45 44 33
86 85 78 72 81 83 70 67 69 58 48 45 39 38 43 43 44 48 44 30 21 18 19 24 28 28 28 29 39 52 50 39 34 34 35 40 45 52 61 64 65 66 63 62 64 63 63 65 64 65 68 72 75 77 83 92 91 74 47 26 20 18 14 13 15 15 17 19 19 21 22 23 26 29 30 31 30 30 34 33 31 34 38 41 38 30
73 82 78 81 89 86 79 78 71 57 45 41 46 51 44 39 43 43 31 19 15 18 21 20 23 25 26 28 33 36 34 30 33 36 36 38 42 50 59 63 64 64 61 61 63 63 64 65 64 63 66 72 76 77 81 91 98 89 61 33 22 19 14 14 16 16 17 19 19 21 22 23 27 30 32 31 29 30 33 32 32 33 36 38 32 29
51 61 72 85 83 74 79 80 62 48 43 38 43 51 47 40 36 25 17 16 18 21 21 21 23 24 25 27 29 28 30 33 34 35 36 37 41 48 56 61 63 62 60 59 59 62 64 64 62 61 64 71 76 78 79 85 95 96 76 45 25 18 15 15 16 16 18 19 20 20 21 23 25 29 32 31 29 30 31 31 32 30 33 36 28 27
48 46 57 70 62 53 65 68 46 34 38 34 26 29 34 31 23 16 19 24 22 19 21 22 22 21 23 27 27 27 31 33 33 34 35 37 41 47 53 59 62 61 59 56 57 61 63 62 62 60 62 69 76 78 78 80 90 98 88 58 30 17 16 16 16 17 18 18 19 19 20 23 24 26 30 30 29 30 30 31 32 29 31 32 27 38
48 43 42 44 44 43 48 51 35 19 20 25 20 19 20 17 15 18 22 24 22 19 19 20 20 21 23 26 28 29 32 33 33 33 35 38 42 46 50 56 60 61 58 55 57 60 60 61 64 62 61 66 74 78 77 78 86 96 93 69 36 18 17 18 16 18 18 17 18 19 19 23 25 26 28 28 28 30 30 31 31 30 30 28 33 62
37 33 31 36 47 45 31 29 31 22 17 20 17 17 19 17 17 18 18 19 20 17 16 19 21 22 25 28 31 32 32 33 35 35 36 38 40 43 48 55 60 61 57 54 55 56 58 63 64 61 61 65 71 77 79 80 85 93 96 83 52 25 18 18 16 17 18 17 18 18 18 21 25 28 28 26 28 29 29 32 31 29 29 27 38 72
35 28 33 35 41 40 28 27 32 25 18 18 16 17 20 17 14 15 15 17 18 17 19 22 21 23 27 29 32 34 34 36 38 36 34 35 38 42 49 55 60 60 55 52 52 54 60 63 61 59 61 64 70 76 79 81 86 92 99 96 71 37 19 17 18 17 17 18 18 17 18 19 22 27 29 28 29 28 28 32 31 28 29 28 37 66
37 31 41 43 38 36 31 27 25 21 20 19 18 19 18 15 14 16 16 18 19 20 22 23 23 26 28 27 30 34 35 35 35 35 34 34 38 44 50 56 60 58 53 51 52 54 58 59 58 58 61 64 69 76 80 80 84 91 98 100 83 51 23 15 17 17 17 19 18 17 18 19 20 24 27 29 31 30 28 30 30 29 30 29 39 66
30 32 45 47 42 39 35 26 23 24 23 16 13 15 16 15 17 18 18 20 22 22 24 25 26 28 29 28 30 33 32 31 30 32 33 35 38 43 49 56 59 58 53 51 50 52 54 56 57 56 58 64 71 78 80 79 80 87 94 97 88 63 32 16 16 16 16 18 19 18 19 20 20 22 24 27 32 33 30 29 29 31 33 32 41 66
30 35 42 44 44 42 34 23 19 22 22 16 12 14 16 17 19 21 22 23 24 25 26 27 28 29 31 32 32 33 33 31 29 31 34 35 37 41 47 55 60 58 54 51 50 51 52 54 56 55 55 63 72 77 80 78 73 77 85 90 86 66 37 18 14 14 15 18 19 18 19 19 20 22 23 24 28 32 34 34 33 33 36 38 42 53
29 30 32 39 43 35 20 14 16 20 20 18 15 15 17 19 21 23 24 26 27 29 31 32 34 35 35 35 35 37 37 34 32 35 36 35 36 40 45 54 60 60 56 52 51 51 50 52 56 53 51 59 69 77 80 76 66 64 71 76 72 55 34 20 15 13 14 17 18 18 19 19 20 22 22 23 25 28 31 36 39 38 39 42 45 48
Wind_Speed
10 7 6 3 3 7 7 4 5 4 4 5 4 4 2 1 3 4 4 4 1 1 4 5 5 8 9 8 13 21 20 18 18 14 12 9 6 9 12 14 13 11 10 10 14 20 23 24 25 27 28 28 30 32 32 31 28 25 25 26 26 26 26 27 28 29 30 31 31 31 31 30 28 27 27 27 27 27 26 25 25 24 25 26 27 29
7 8 4 2 6 6 6 5 4 4 4 4 4 4 1 1 3 4 3 4 0 1 4 4 5 10 10 8 13 17 15 17 22 18 14 10 7 9 12 14 13 11 10 11 15 19 22 24 25 26 26 27 29 31 32 31 27 25 25 25 25 25 25 26 27 28 29 29 29 29 28 28 27 27 27 26 26 26 26 26 26 26 26 26 26 28
7 7 4 6 5 3 2 1 5 7 6 5 4 4 2 2 3 4 4 4 3 1 4 4 5 10 11 8 11 14 16 20 24 21 15 11 8 9 12 14 12 12 12 14 15 17 22 24 24 25 25 26 28 29 32 31 26 24 24 24 24 24 24 24 25 26 27 27 27 27 26 26 26 26 26 25 24 24 24 24 25 27 28 28 28 28
6 3 8 9 4 1 3 6 7 6 5 5 5 3 2 4 3 3 4 5 3 0 3 4 5 8 8 6 8 11 18 18 16 16 13 11 10 10 11 13 13 14 15 15 15 16 21 24 23 23 24 25 28 29 31 30 25 23 23 23 23 23 23 23 24 25 25 25 26 26 26 26 25 26 25 25 25 25 25 24 24 25 26 27 29 30
4 4 10 7 3 3 5 8 8 6 5 3 3 4 2 5 3 4 4 5 4 3 2 4 5 5 5 5 6 6 10 11 9 13 12 11 12 11 12 14 14 15 17 16 14 15 20 23 21 22 23 25 28 29 30 29 25 23 22 22 22 22 21 22 23 24 24 25 26 27 28 28 28 28 28 29 29 28 27 26 26 25 26 26 27 28
3 6 8 3 4 6 5 6 6 4 4 4 2 4 4 4 4 6 5 4 4 4 3 3 4 4 5 5 7 4 3 6 7 11 13 14 15 15 15 15 16 16 17 16 14 15 20 21 19 21 23 25 28 28 29 28 24 22 21 21 21 21 21 21 22 23 24 26 27 28 30 31 32 31 31 31 30 29 28 27 27 26 26 27 27 28
2 8 7 3 2 3 5 5 2 3 6 3 2 4 4 3 2 4 3 3 3 3 4 3 4 3 6 6 7 4 3 6 5 8 13 16 18 19 18 16 16 17 17 16 14 15 18 18 18 21 23 25 26 26 28 27 23 22 21 20 21 20 20 21 21 22 24 25 26 27 28 29 30 31 30 29 28 28 27 27 27 26 26 27 28 29
2 8 8 4 3 4 7 5 2 4 6 2 1 6 6 3 3 3 1 3 0 2 4 3 4 2 5 6 6 4 3 6 6 7 11 16 19 19 18 17 17 17 17 15 14 15 17 16 18 21 22 24 25 25 27 27 23 22 20 20 20 20 20 20 21 22 23 25 26 26 27 27 27 28 28 28 27 27 27 27 26 26 26 26 27 29
1 4 6 5 5 5 3 1 1 5 3 3 2 5 4 4 4 3 3 2 1 2 4 5 1 0 5 6 5 3 2 6 8 7 10 17 20 18 17 17 16 17 17 15 14 15 15 15 18 21 22 23 23 24 27 26 22 22 21 20 20 20 20 20 21 21 23 24 25 26 27 27 27 27 27 27 27 27 28 28 27 27 27 27 27 28
1 2 5 2 4 3 3 4 3 6 1 2 4 5 3 2 2 2 3 2 3 4 2 6 1 1 5 6 5 3 2 6 8 6 10 18 19 15 16 17 16 16 15 14 15 14 14 15 18 20 21 22 23 24 27 26 22 21 21 20 20 20 20 20 20 21 22 23 25 26 27 27 28 28 28 27 27 27 28 28 28 28 28 28 28 28
4 4 5 2 2 2 5 4 2 5 2 2 5 5 5 4 3 2 2 3 4 3 5 6 2 2 3 6 4 2 3 5 5 5 9 15 17 14 16 17 16 16 14 15 15 14 13 15 18 20 21 21 23 24 26 26 23 22 22 21 20 20 20 20 20 21 22 23 24 26 26 27 28 28 29 29 29 29 28 28 28 28 28 28 28 28
6 2 3 3 3 4 3 2 1 1 1 3 4 4 3 3 4 3 5 4 4 3 6 5 2 4 1 6 5 5 7 5 6 5 8 13 16 15 15 16 16 15 14 15 15 13 13 15 18 20 20 21 22 24 26 28 26 23 22 22 20 20 20 20 20 21 22 23 24 25 26 27 28 28 29 29 29 29 29 29 29 29 28 28 28 28
3 2 4 4 3 5 4 3 4 4 5 5 4 5 4 3 4 3 4 3 1 4 4 1 1 1 4 8 8 9 10 8 12 13 12 15 18 17 17 16 15 14 15 16 14 13 13 15 18 20 20 20 22 23 26 28 27 24 23 22 20 20 20 19 20 21 21 23 24 25 26 26 27 28 28 29 29 29 29 29 29 30 30 30 30 29
3 4 7 3 2 5 5 4 2 4 5 5 2 3 3 2 3 3 3 2 3 5 3 0 0 2 4 7 8 9 10 10 14 16 16 17 19 19 18 17 15 15 16 15 14 13 13 15 18 19 19 20 21 23 26 28 28 25 23 22 20 19 19 19 20 21 21 22 23 24 25 26 27 27 28 28 28 28 28 29 29 29 29 30 30 30
2 4 5 1 1 4 4 3 2 1 2 3 2 5 3 3 3 1 2 1 3 5 5 3 1 2 4 5 7 8 10 10 13 16 16 18 20 20 20 19 18 17 16 16 15 13 14 16 18 19 18 19 20 23 26 27 28 26 24 23 19 18 18 18 19 20 21 22 23 24 24 25 26 27 27 27 27 28 28 28 29 29 29 29 29 29
1 4 5 2 2 1 2 2 3 4 1 2 2 4 1 2 3 1 2 4 1 3 5 3 2 5 5 7 8 7 8 10 13 15 15 18 21 19 20 20 19 18 18 17 16 14 14 16 17 18 17 18 20 23 24 27 28 26 25 22 19 17 17 17 18 19 20 21 22 23 24 25 26 27 27 28 28 28 28 28 28 28 28 29 29 29
2 4 5 3 2 1 3 2 2 2 0 1 2 1 2 3 5 3 1 1 4 2 4 2 3 5 4 6 7 6 5 9 11 13 14 17 19 18 20 20 18 18 18 17 16 14 14 16 17 16 17 18 20 21 22 26 28 26 24 21 18 16 16 16 17 19 20 21 22 23 24 25 26 27 27 28 28 28 28 28 28 28 28 28 29 29
1 4 6 1 1 1 2 1 1 1 2 2 1 2 1 2 4 4 1 4 5 1 4 3 4 6 4 4 6 6 6 8 8 10 13 16 17 18 20 19 18 18 17 17 15 14 14 15 16 16 16 18 19 20 21 24 27 26 22 19 17 16 15 16 17 18 19 21 22 23 24 25 26 26 27 27 28 28 28 28 28 28 28 28 29 29
2 2 6 2 1 3 3 1 3 2 2 3 3 3 2 2 1 1 1 1 2 2 5 5 5 4 3 4 6 8 8 8 8 8 10 13 16 17 18 18 17 17 16 16 15 13 14 15 15 15 16 17 18 18 19 24 27 24 21 18 16 16 15 15 17 17 18 20 22 23 24 24 25 26 26 27 27 28 28 29 29 29 29 29 29 29
1 1 5 4 1 3 3 2 1 3 2 2 2 0 1 2 3 1 0 2 1 2 3 4 6 4 5 6 5 9 9 7 8 7 7 13 17 17 17 16 16 16 16 16 14 13 14 14 14 15 16 16 17 17 19 24 26 23 20 18 15 15 15 15 16 17 18 20 21 22 23 24 25 26 26 27 27 28 28 28 29 29 29 29 29 29
1 2 3 5 4 2 2 1 4 4 2 1 1 1 2 1 1 0 0 2 3 2 2 2 5 7 7 5 6 10 9 7 8 7 9 15 19 18 16 16 16 16 15 15 14 13 13 13 14 15 15 15 16 16 19 25 25 21 20 18 15 15 15 15 16 17 18 20 21 22 23 24 25 26 26 26 26 27 28 28 29 29 29 29 29 30
0 1 3 5 5 2 4 4 4 5 5 4 3 3 3 1 1 1 2 2 2 3 4 2 4 9 8 4 6 9 8 7 9 10 11 17 21 19 16 15 15 16 14 14 14 13 13 13 13 14 14 15 16 17 21 26 23 20 20 18 15 15 15 15 16 17 18 20 21 22 23 24 25 25 26 26 27 27 27 28 29 29 30 30 29 29
1 2 0 5 5 5 6 4 2 3 3 3 2 2 3 3 4 4 2 3 1 1 2 3 2 9 7 5 7 9 8 8 12 14 14 19 21 17 14 14 15 15 14 14 14 13 12 13 13 14 14 15 17 18 23 26 22 20 20 18 15 15 15 15 16 16 18 19 20 22 22 23 24 25 26 27 27 28 28 28 29 29 30 30 30 30
1 2 1 5 5 4 6 4 1 1 1 1 2 1 4 3 3 5 5 3 1 2 2 3 3 8 7 5 8 9 8 9 16 18 16 18 18 14 13 14 14 13 14 14 14 13 12 13 14 14 14 16 17 19 23 25 22 21 21 18 15 15 14 15 16 16 17 18 20 21 22 23 24 25 27 27 28 28 28 29 28 29 29 29 30 30
1 0 1 3 6 7 7 6 5 4 1 2 3 1 3 4 6 3 2 3 1 4 5 4 5 9 6 2 4 6 7 11 16 19 16 16 15 13 12 13 12 12 13 13 13 13 13 14 14 14 15 16 18 20 23 23 23 22 21 18 15 14 14 15 15 16 17 18 19 21 22 23 24 25 27 28 28 29 29 29 28 28 28 28 29 29
2 2 2 2 2 3 5 5 5 4 2 2 1 1 2 5 7 4 2 3 2 4 5 5 6 10 11 8 5 7 8 10 16 21 19 16 14 12 12 12 11 11 12 13 13 13 13 14 14 14 15 18 19 21 22 23 23 23 21 17 15 14 14 14 15 16 17 18 19 20 22 23 24 25 27 27 28 29 29 29 28 28 27 28 28 28
1 1 3 5 6 5 6 8 5 1 3 5 4 3 4 4 5 5 4 3 5 3 3 8 10 12 18 17 14 13 11 10 15 21 23 19 15 13 12 11 10 10 12 13 14 14 14 14 14 15 16 18 20 21 22 22 23 23 20 16 14 14 14 14 15 15 16 17 19 20 21 23 24 25 26 27 27 28 28 28 28 28 27 27 27 27
3 2 4 6 8 9 9 10 6 1 4 9 8 6 6 5 6 7 6 7 5 3 5 9 8 7 15 18 17 17 14 12 15 21 25 22 17 13 11 10 10 11 12 14 14 15 14 14 15 16 16 18 20 21 22 22 23 22 18 15 14 14 13 14 14 15 16 17 19 20 21 22 23 24 25 26 27 27 28 28 28 28 27 27 26 26
4 3 4 4 7 11 10 12 10 4 6 8 7 8 8 6 9 11 12 9 7 5 11 10 6 8 15 18 18 18 16 16 20 25 26 22 17 13 12 12 12 12 13 14 15 15 15 15 15 16 16 18 19 20 21 22 22 19 15 13 13 13 13 14 14 15 16 17 19 20 21 22 23 24 25 26 27 28 28 29 28 27 27 26 26 25
3 3 4 3 6 11 10 10 8 5 4 7 8 10 9 9 12 13 12 8 9 12 16 16 15 16 18 17 20 25 27 25 25 25 24 21 17 13 12 13 14 13 14 14 15 14 15 16 16 15 16 18 19 20 22 21 19 16 13 12 13 13 13 13 14 15 16 17 19 20 20 21 22 24 25 26 27 28 29 29 29 28 28 27 26 25
2 3 2 3 3 9 7 6 4 5 6 8 12 9 7 7 8 9 9 6 7 11 15 15 13 15 17 17 20 25 25 20 20 23 22 20 16 13 14 15 14 14 14 14 14 14 16 16 15 15 16 18 19 20 21 19 15 13 12 12 12 13 13 13 13 15 16 17 19 19 20 21 22 24 25 26 28 28 29 29 29 29 29 28 27 26
2 2 2 5 3 7 4 5 9 8 4 6 12 11 6 6 6 6 6 6 8 8 9 8 7 10 12 11 12 18 18 15 18 22 22 19 16 14 15 16 15 14 13 13 13 15 16 16 15 15 16 18 19 21 21 17 13 12 11 11 12 12 12 13 13 14 16 17 19 20 20 21 23 24 25 27 28 29 29 30 30 30 30 30 29 28
3 1 2 3 2 6 5 5 9 9 6 4 8 6 7 7 6 5 5 7 10 7 4 6 8 10 9 9 11 15 16 14 17 21 21 20 18 18 18 16 15 15 14 13 15 16 16 15 14 15 17 19 19 20 20 16 12 12 11 11 12 12 12 12 13 14 15 17 19 20 20 22 23 24 26 27 28 29 29 30 30 30 30 30 29 28
2 3 1 1 1 6 8 7 6 4 3 5 6 7 7 7 8 7 9 10 10 7 6 8 10 11 12 12 11 14 18 20 22 24 24 23 22 22 20 16 14 15 15 14 16 16 15 15 14 14 17 18 19 19 18 15 13 12 11 11 11 11 11 12 12 13 15 16 18 19 20 22 23 24 26 27 28 29 29 30 30 30 29 29 28 28
3 2 1 1 1 4 5 7 6 1 5 9 6 4 6 7 8 8 11 14 11 11 12 14 14 15 18 19 19 22 27 28 26 27 27 25 23 22 19 15 14 15 16 16 16 15 14 14 13 14 16 18 18 18 16 14 12 11 10 11 11 11 11 11 12 13 14 16 17 18 20 21 23 24 25 26 28 29 29 29 30 30 29 28 27 27
5 4 2 1 2 2 3 4 2 5 10 12 9 2 2 2 3 2 9 14 12 11 11 12 14 18 22 25 26 27 27 27 25 26 25 20 16 16 15 14 14 15 16 16 15 14 13 13 13 14 16 17 17 17 15 13 12 10 10 11 11 11 11 11 11 12 13 15 17 17 19 21 22 24 25 26 28 28 29 30 30 29 28 27 26 25
6 4 1 1 2 1 0 2 4 6 10 10 4 1 2 2 3 3 3 11 12 9 10 11 12 16 21 25 26 24 21 20 19 18 17 12 10 13 13 13 13 15 16 15 14 14 13 13 13 14 15 16 16 16 15 14 12 10 10 10 11 11 11 10 11 12 13 14 16 17 18 20 21 23 24 25 27 28 29 29 29 28 27 26 25 24
4 3 3 2 1 1 2 3 5 5 6 7 6 5 2 3 4 6 3 8 12 10 13 12 10 14 18 21 22 18 15 12 10 11 14 13 12 13 13 12 13 15 16 15 14 14 13 13 13 14 14 15 15 15 15 14 12 11 10 10 11 11 11 10 11 12 12 14 15 16 18 19 20 22 23 24 26 27 28 28 28 28 26 25 24 22
3 2 3 2 2 0 3 1 2 2 6 8 8 5 3 5 5 5 3 8 8 7 10 10 12 16 18 20 19 13 9 7 7 13 19 19 17 17 15 14 14 15 16 16 14 14 14 13 14 14 14 15 15 14 14 13 12 11 10 11 11 11 11 11 11 11 12 13 14 15 17 18 19 21 22 23 24 26 27 27 27 26 25 24 23 21
4 3 2 2 4 3 3 3 3 5 8 10 10 7 5 8 5 5 4 9 7 4 6 8 13 18 20 22 18 6 2 7 11 19 26 25 23 22 19 18 17 16 17 17 15 15 14 14 15 15 15 15 15 14 13 12 11 11 11 10 11 11 11 11 11 11 12 13 13 15 16 17 18 19 21 22 23 24 25 25 25 25 24 23 23 22
1 0 1 3 3 4 5 3 4 5 8 10 9 5 8 8 4 1 5 10 8 10 16 17 19 23 24 24 18 11 14 21 24 27 28 26 26 25 22 21 19 18 18 18 17 15 15 15 16 16 15 15 14 14 13 12 11 12 11 11 11 12 11 11 11 11 11 12 12 14 15 17 17 18 19 21 23 23 24 24 24 24 23 22 23 23
1 1 1 2 2 3 4 3 3 7 9 7 5 7 10 7 1 5 10 16 19 22 28 30 28 27 27 26 24 24 28 31 29 27 26 25 26 25 23 22 20 19 18 19 18 17 16 16 16 16 16 15 14 14 13 12 12 12 12 11 11 11 11 11 11 10 11 11 11 13 15 16 17 18 19 20 22 23 22 22 23 22 21 21 22 23
4 3 2 3 4 2 1 1 1 6 7 11 11 6 7 7 9 15 19 27 32 31 33 36 35 32 29 29 29 32 33 32 30 28 27 27 26 24 23 23 21 19 19 19 19 18 17 16 17 16 16 15 15 15 14 12 12 12 12 12 12 11 11 11 11 10 10 10 10 12 14 15 16 17 18 19 21 22 22 21 21 21 20 20 20 22
4 4 3 4 4 4 2 4 5 7 8 15 12 8 12 17 26 29 27 31 38 39 38 37 37 36 32 30 32 35 34 33 32 31 29 28 27 24 23 23 21 20 19 19 19 19 18 18 17 17 17 16 15 15 14 13 12 12 13 13 12 11 11 11 10 10 10 9 9 11 12 14 15 17 18 19 20 21 21 20 19 19 19 19 20 22
8 9 4 3 5 5 5 10 15 20 19 15 19 29 34 34 37 36 32 35 40 41 39 37 39 38 33 30 33 35 35 34 33 32 32 30 28 25 24 23 22 20 19 19 20 20 19 18 17 17 17 16 16 16 15 13 12 12 13 14 12 11 11 11 11 10 9 9 9 10 11 12 14 15 17 19 20 21 21 20 19 18 18 18 19 20
13 11 5 1 4 5 12 21 26 32 37 35 34 38 39 39 40 39 39 39 38 37 38 38 39 37 33 32 34 36 36 35 34 34 34 32 29 25 24 24 23 20 20 20 20 20 19 18 18 19 18 17 16 16 16 15 13 13 14 15 14 12 11 12 11 10 10 9 9 9 10 11 12 12 14 16 18 20 20 19 19 18 17 18 19 19
9 9 6 4 3 2 9 15 17 24 34 37 37 39 38 37 37 36 35 35 35 36 37 37 37 36 35 35 35 35 35 34 34 36 35 32 29 25 23 23 23 21 20 20 19 19 20 20 20 19 18 18 17 17 17 16 14 13 15 16 15 13 12 12 11 11 10 9 9 9 10 10 11 11 11 12 14 17 18 18 17 17 17 17 19 18
2 4 5 6 5 5 10 18 23 31 37 37 37 38 35 31 32 33 33 34 36 38 39 39 38 37 38 37 33 31 32 33 34 35 33 30 27 24 23 23 22 21 20 19 19 20 21 21 20 19 19 18 17 17 18 17 14 14 15 17 16 14 13 12 11 11 10 9 9 9 9 10 10 10 11 11 12 14 15 15 15 15 15 16 17 16
4 4 4 3 4 7 13 22 27 28 28 31 35 34 29 27 31 36 39 40 41 43 43 42 39 36 35 35 31 29 31 32 32 31 30 29 28 25 23 23 22 21 20 20 20 21 21 21 20 19 19 19 18 18 19 17 15 15 15 17 17 16 14 13 12 11 11 10 9 9 9 9 10 10 10 11 12 13 15 15 14 13 13 14 13 12
5 5 4 3 2 7 11 17 18 10 10 24 38 40 35 33 36 40 45 45 44 43 41 40 39 37 35 34 32 30 31 33 32 31 30 29 28 26 24 23 22 21 21 20 21 21 22 21 20 19 19 19 19 19 19 17 16 15 15 16 18 17 15 14 12 12 11 10 9 9 8 9 10 10 10 11 11 12 14 15 14 13 12 11 11 9
18 14 9 7 7 12 20 28 26 15 14 28 41 44 43 43 43 44 45 44 42 41 39 38 39 40 39 38 35 32 33 35 33 32 32 31 29 27 25 23 23 23 22 22 22 22 22 21 21 20 19 19 19 19 18 17 16 16 15 16 17 17 16 14 13 12 11 10 9 9 8 9 9 9 9 10 10 10 11 12 12 12 11 10 9 9
Wind_Direction
58 74 47 42 265 281 282 244 188 172 136 136 111 94 139 213 289 272 277 274 182 49 276 242 258 276 272 266 245 231 224 228 235 230 227 243 288 312 331 334 309 302 323 333 336 338 339 338 337 337 335 334 338 345 348 350 352 349 350 354 355 356 355 354 357 360 359 360 0 1 2 4 7 9 9 9 9 7 5 3 2 2 2 1 0 360
63 70 26 284 244 261 289 260 176 112 94 107 103 83 61 253 270 269 269 282 314 85 275 288 311 284 271 270 259 240 225 228 230 223 222 235 272 301 324 331 309 301 316 323 329 335 338 337 336 335 334 334 340 346 349 351 352 348 349 353 353 354 354 354 357 358 359 360 360 359 360 1 4 7 8 7 7 6 4 2 0 2 3 3 2 0
46 50 320 301 277 252 323 351 105 94 82 72 78 85 29 290 287 295 294 310 16 88 271 321 329 285 282 282 267 246 222 224 229 225 223 233 260 291 314 326 312 300 306 314 323 333 337 335 333 333 333 336 342 346 349 351 350 347 349 352 352 353 353 354 356 357 357 357 357 357 358 1 3 4 6 5 5 5 5 3 359 359 1 2 2 1
61 8 319 334 319 199 30 27 61 69 64 63 65 77 288 296 341 297 291 321 344 76 266 305 309 286 297 306 283 250 223 225 232 223 220 235 258 283 306 321 314 300 303 312 318 329 335 331 328 332 334 338 342 345 349 350 348 346 349 350 350 351 353 354 354 355 354 353 353 355 356 360 3 3 2 2 4 5 5 5 2 0 0 360 360 360
110 298 327 344 13 75 61 34 47 62 35 17 92 110 272 288 281 243 273 322 332 355 313 316 324 296 311 321 298 266 224 228 226 209 214 237 254 274 296 313 313 303 303 307 310 323 331 328 325 332 335 338 341 344 348 350 347 346 348 348 348 351 352 353 354 353 352 351 352 353 354 356 359 1 1 0 2 2 3 4 3 2 1 0 360 359
93 342 346 0 22 37 76 56 39 74 54 342 248 188 232 243 242 268 306 358 20 359 309 0 9 300 310 306 273 282 247 236 221 209 223 241 253 268 287 303 309 304 300 298 303 318 327 325 324 331 335 338 341 344 349 350 346 345 346 346 347 350 352 352 353 352 350 351 352 353 354 354 355 358 360 359 358 358 360 1 1 1 0 0 0 360
35 1 13 89 91 39 70 64 14 94 88 6 290 179 166 151 194 275 323 53 54 309 283 64 88 270 312 305 267 281 274 260 258 240 242 248 259 272 282 295 303 302 295 289 295 313 321 322 325 332 335 338 341 344 350 350 345 344 344 345 346 348 351 352 353 352 350 351 353 354 355 355 354 355 356 356 355 355 356 357 357 358 360 0 360 360
349 359 7 40 84 64 52 37 307 106 95 350 315 126 128 138 194 225 89 81 195 273 322 22 106 225 294 284 282 310 297 293 294 277 264 258 267 279 281 287 297 299 292 283 290 308 317 321 326 332 334 337 340 344 350 350 345 345 346 346 346 347 350 351 352 352 350 351 352 352 353 354 354 353 353 352 352 352 352 354 355 356 358 359 360 360
328 348 341 359 29 34 40 338 205 115 88 272 195 118 137 173 182 169 104 78 337 50 346 321 39 307 272 274 314 354 301 296 284 269 262 260 272 284 280 283 294 296 288 279 288 304 313 320 327 331 332 335 340 344 350 351 346 346 349 347 344 346 349 350 351 352 351 350 350 350 351 352 352 352 351 350 349 349 350 352 353 354 356 358 359 359
253 277 295 344 39 9 273 264 164 131 336 266 135 74 48 86 103 105 96 81 32 42 299 274 320 18 279 282 321 359 292 272 267 263 254 261 277 284 278 283 292 293 281 273 286 299 308 320 326 329 331 335 340 343 349 351 346 344 348 347 343 344 348 348 349 351 351 350 349 350 350 350 350 350 349 349 348 349 349 350 350 352 354 356 357 358
290 269 270 300 41 293 270 286 160 163 230 125 97 48 30 19 21 49 54 77 59 5 263 244 198 102 307 285 272 268 252 225 233 273 266 269 283 283 278 284 291 291 276 269 283 293 305 319 325 327 330 335 339 341 347 349 345 342 345 346 343 343 345 345 347 351 350 349 349 349 350 349 349 349 348 348 348 349 348 348 349 350 352 353 354 356
331 321 279 287 312 322 336 354 347 222 203 104 87 64 72 340 354 21 354 37 70 303 261 234 178 115 220 272 264 261 262 222 207 240 257 272 285 286 282 285 290 288 272 269 280 288 303 317 322 326 330 334 337 339 343 345 342 341 343 344 342 342 343 343 346 349 349 349 348 348 349 349 349 349 348 347 348 347 346 347 348 348 349 351 352 354
331 285 307 304 310 358 40 41 340 345 17 37 40 56 70 348 1 12 331 11 62 263 248 185 32 122 220 252 266 269 271 245 223 234 252 269 280 286 286 287 291 284 270 271 278 285 302 316 321 327 330 331 335 337 340 341 340 341 343 343 342 341 340 342 345 347 348 348 348 347 348 348 348 348 348 347 347 346 345 345 346 347 348 349 351 353
329 301 330 346 318 3 57 83 356 334 356 10 43 82 87 78 37 340 299 340 305 270 265 121 100 284 283 271 245 243 264 252 235 246 263 272 278 284 287 288 286 279 272 272 276 285 302 315 321 326 328 329 332 335 337 338 339 342 343 343 341 340 338 340 343 345 346 347 347 347 347 347 347 347 347 347 346 345 344 343 344 345 346 347 349 351
19 307 324 24 326 355 54 109 137 148 341 313 173 125 115 134 121 277 248 247 289 288 294 306 216 227 279 274 235 244 275 260 243 257 269 274 278 282 284 283 279 276 273 272 276 286 302 314 320 324 326 327 329 331 334 337 338 340 342 342 340 338 336 339 343 343 345 347 346 346 347 347 347 347 346 347 346 344 343 342 342 343 344 345 346 347
72 262 271 304 304 1 86 153 137 106 45 280 148 89 63 176 144 131 205 203 250 320 298 285 243 232 245 270 279 295 293 266 259 272 277 278 281 281 279 279 278 277 275 272 275 287 302 312 318 321 322 323 326 329 334 337 337 338 340 339 337 336 335 338 341 341 343 345 345 346 346 347 347 347 346 347 346 344 343 342 341 342 343 343 343 344
24 277 285 338 325 61 101 154 147 111 5 355 62 57 242 164 123 101 289 327 53 32 288 293 285 290 309 301 309 345 319 283 282 293 297 289 284 279 278 281 282 280 277 273 275 286 300 310 315 316 318 321 324 328 334 337 336 336 337 336 334 334 335 338 340 341 343 343 345 346 346 348 348 347 346 347 346 344 343 342 341 341 341 342 341 342
122 280 295 339 191 358 64 44 353 111 135 59 60 212 200 89 86 95 49 349 36 59 281 311 288 296 338 312 317 346 317 289 289 301 308 301 288 282 283 286 286 284 279 271 273 285 297 308 312 312 315 319 323 328 334 335 334 334 334 334 335 334 335 339 340 341 342 343 345 346 347 348 348 347 347 346 346 344 343 342 341 341 342 342 341 340
119 298 299 271 169 322 349 10 338 346 91 92 150 173 111 69 349 31 55 348 17 310 290 303 291 279 225 239 298 318 299 289 294 301 305 298 293 293 295 294 290 284 275 269 274 285 298 308 308 308 313 318 323 327 331 333 332 332 333 335 336 334 336 339 339 339 341 343 345 346 347 348 347 347 347 346 346 345 343 342 342 342 342 342 341 340
104 88 288 290 296 318 353 57 249 285 348 64 98 70 5 130 167 201 146 164 176 276 284 314 323 294 231 219 253 280 280 277 287 298 293 290 299 305 302 299 294 284 276 273 276 284 298 305 303 307 313 317 322 324 328 331 330 332 335 336 337 335 335 338 338 338 342 345 345 346 347 347 348 348 347 346 346 345 344 343 342 343 343 343 342 340
66 112 256 297 332 323 307 234 203 193 179 111 69 302 301 341 151 256 176 151 139 156 203 304 312 281 255 217 221 258 268 254 261 278 283 294 311 317 308 302 297 286 277 274 275 283 295 298 300 309 314 317 321 321 325 329 329 333 337 335 337 336 334 337 337 338 343 345 344 345 347 347 348 348 347 347 346 346 345 344 344 344 343 343 343 341
136 149 227 293 330 294 249 248 208 184 174 163 178 203 193 187 113 47 303 293 103 154 180 164 286 277 267 213 213 246 244 239 265 279 288 306 321 322 312 304 296 286 277 273 274 281 289 293 302 311 313 317 319 319 323 326 328 335 337 334 336 335 333 336 337 338 343 344 343 345 347 347 348 347 347 347 347 347 347 345 346 345 343 344 344 343
148 111 177 277 275 253 263 275 205 209 195 156 175 175 138 133 124 129 225 265 304 231 178 120 255 269 257 202 212 232 224 250 293 301 303 315 324 320 309 304 295 283 275 272 275 279 285 294 306 312 313 316 318 320 324 325 328 336 336 333 334 333 332 334 335 338 342 343 342 344 346 347 348 348 347 348 348 348 348 347 347 346 344 345 345 345
129 87 25 289 288 299 304 306 290 318 67 163 251 149 140 156 138 150 178 187 216 245 165 116 251 268 269 234 225 236 240 275 302 308 310 315 319 315 307 304 295 281 273 273 275 275 283 297 307 312 312 315 318 322 325 326 329 334 334 331 331 330 331 332 333 337 340 341 342 343 345 347 348 349 348 348 349 348 348 349 348 347 345 345 345 345
217 187 58 334 334 342 342 345 342 341 1 220 244 197 156 121 104 122 142 102 265 233 165 151 243 263 274 235 203 244 269 281 295 307 313 314 315 313 311 307 293 275 271 274 274 275 286 299 307 311 313 315 319 323 326 324 326 331 331 328 327 328 330 330 331 336 339 340 341 342 345 348 349 350 349 349 349 348 349 349 349 348 346 345 346 345
190 206 136 98 15 330 316 315 313 305 278 238 210 194 192 139 131 154 129 98 246 236 163 171 240 272 290 295 278 277 282 286 301 312 316 317 316 312 311 305 287 276 278 278 276 279 289 300 307 311 313 315 319 323 324 321 322 326 326 323 324 326 327 328 330 334 337 338 341 343 345 348 350 350 350 349 348 348 349 350 349 349 348 347 346 346
109 225 202 176 186 208 232 249 260 332 301 277 266 241 219 181 146 125 115 169 203 189 206 227 238 272 290 293 297 302 304 306 311 313 315 319 321 314 309 301 288 287 287 280 277 281 290 300 307 312 313 314 319 323 322 318 319 323 322 319 321 323 324 327 329 333 335 338 341 343 345 349 350 350 349 348 348 348 349 350 350 350 350 350 348 348
86 286 245 197 218 234 237 253 271 323 265 262 264 256 230 197 158 152 189 211 168 117 270 246 214 244 278 287 295 299 304 310 307 306 309 314 317 312 306 303 298 292 283 278 278 281 291 301 308 311 312 312 317 321 319 316 317 319 317 316 318 320 322 325 328 332 335 338 341 342 346 349 349 349 348 347 348 349 350 351 352 351 351 351 350 351
116 258 240 185 248 258 250 262 271 256 251 256 248 249 244 201 178 196 219 209 164 196 252 254 240 259 276 285 289 289 293 295 295 298 303 306 308 307 305 306 303 293 281 278 279 282 292 303 307 309 309 311 316 317 314 314 315 314 312 313 315 317 320 323 327 331 335 338 340 342 346 348 348 348 347 347 348 350 351 352 352 351 351 351 351 353
133 245 228 173 286 281 263 265 258 220 253 279 254 237 231 213 202 213 229 215 198 231 253 265 278 277 273 272 275 282 288 289 289 294 298 300 303 306 307 309 304 292 282 280 280 285 295 304 307 306 306 312 315 314 312 315 315 311 309 311 313 315 318 322 327 331 336 338 339 342 345 346 347 347 347 348 349 351 352 351 351 351 351 353 354 355
149 260 240 116 315 292 288 308 293 211 224 272 280 263 227 223 227 226 234 226 219 246 258 265 277 277 271 266 266 276 285 289 291 295 297 299 304 305 306 310 306 293 285 281 282 291 300 304 305 302 306 313 315 313 315 318 315 309 308 310 313 315 317 322 328 332 336 337 337 340 343 344 347 348 347 348 350 352 352 350 350 351 353 354 355 357
151 279 353 62 344 283 289 350 323 295 260 263 283 280 227 207 222 217 215 199 193 226 260 273 272 266 270 277 278 282 288 290 290 295 298 300 304 305 307 312 311 298 288 285 289 299 304 304 302 301 307 314 315 314 319 323 317 310 308 308 311 314 317 322 329 332 335 335 335 338 341 343 346 348 348 350 351 352 351 350 351 352 353 354 355 357
141 142 359 34 315 272 282 325 314 318 345 313 270 240 191 202 232 245 246 217 199 203 245 259 254 261 286 311 307 298 298 296 294 300 303 302 305 310 312 314 311 300 290 289 296 302 305 304 301 301 308 316 316 315 321 328 323 312 307 305 309 312 317 322 327 331 333 333 333 336 340 342 346 348 350 350 351 352 351 350 352 353 353 354 355 357
122 117 196 196 228 272 291 320 337 358 356 282 235 179 180 222 229 232 252 241 212 199 223 250 266 281 291 293 288 288 292 297 302 305 306 304 305 310 312 310 303 296 289 290 297 303 305 304 300 301 309 316 317 317 323 329 326 315 305 303 307 311 316 322 325 328 330 330 331 334 338 341 345 348 350 350 350 351 351 351 352 353 354 356 357 359
129 131 212 195 195 268 306 358 4 326 236 259 266 214 218 228 206 216 261 264 241 225 241 261 271 274 275 276 278 282 289 297 303 305 306 307 305 305 305 299 293 288 284 288 297 303 306 305 301 302 309 316 317 319 324 327 326 319 306 301 305 309 314 318 321 324 327 327 328 332 336 340 344 348 350 350 350 350 350 351 353 353 355 357 359 0
148 158 206 189 194 275 355 28 330 270 277 292 308 304 209 184 162 222 283 277 254 226 230 250 260 265 271 278 282 287 294 301 302 303 308 310 301 298 296 289 284 279 279 288 298 303 309 308 303 302 308 314 318 321 325 330 329 321 307 301 303 307 311 313 316 320 322 322 326 331 336 340 343 348 349 348 349 349 349 351 354 354 356 359 1 1
149 145 198 252 217 211 345 257 264 306 314 311 311 182 157 153 181 175 268 282 269 235 223 238 259 268 271 278 285 294 305 309 304 306 316 315 298 299 298 286 277 274 279 290 298 304 310 309 303 301 305 313 319 320 325 333 333 324 310 302 302 305 308 308 310 314 317 319 325 330 335 339 343 347 348 347 347 349 349 351 354 354 355 360 2 3
140 148 187 214 253 114 100 301 317 347 315 277 258 253 212 173 181 142 134 287 284 263 243 234 245 265 270 279 290 304 321 323 305 307 322 321 307 307 304 290 279 276 281 290 297 303 308 306 302 300 302 312 320 318 321 330 333 326 312 301 301 303 303 302 304 308 312 317 324 330 334 339 342 345 347 346 346 347 348 350 353 354 355 359 2 5
79 59 118 146 278 4 112 214 250 245 261 258 255 253 180 163 165 111 56 290 271 256 252 235 238 261 272 282 292 309 337 327 294 305 319 322 312 307 305 300 288 280 284 291 295 301 305 303 302 299 299 310 318 315 316 322 329 328 315 302 300 300 298 298 299 304 309 315 323 330 334 337 341 344 346 345 345 346 347 350 353 354 355 358 360 6
57 29 73 169 242 224 148 186 237 242 252 258 265 263 195 164 142 76 347 282 250 250 288 268 260 273 284 289 292 296 256 263 282 304 313 314 309 305 303 303 295 286 287 291 292 298 301 299 300 299 299 307 314 314 313 315 323 326 316 303 298 296 295 294 295 299 306 314 323 330 332 334 339 342 344 344 345 346 346 349 352 354 355 357 358 6
85 20 169 173 210 201 181 222 271 260 250 259 271 243 165 147 109 68 264 269 280 312 318 305 289 290 294 293 286 268 267 280 290 299 305 308 306 301 298 299 296 289 287 289 289 292 294 295 298 299 298 303 309 312 310 307 313 318 314 304 295 291 290 289 290 294 301 311 321 327 329 333 337 342 344 343 344 345 345 348 353 354 355 356 357 6
210 151 151 160 190 189 176 198 277 284 264 228 170 149 150 143 183 234 251 285 301 309 312 307 299 299 299 296 290 285 290 296 297 297 302 305 303 299 294 294 292 286 284 284 284 286 289 291 295 297 297 298 303 308 308 303 303 309 310 304 293 287 286 284 285 290 296 307 319 324 328 332 335 341 344 342 343 344 344 349 353 353 355 356 358 7
187 178 231 212 183 155 123 151 279 290 249 173 146 134 155 182 256 272 284 298 301 303 307 303 301 303 302 300 301 300 300 300 298 298 302 304 302 298 292 290 289 285 281 281 282 284 285 287 291 295 295 293 296 303 306 301 298 302 305 302 294 286 283 280 280 285 292 303 315 321 326 331 333 339 342 341 342 343 343 349 353 354 355 356 1 11
187 183 220 237 191 152 153 187 210 253 217 168 172 248 246 245 270 283 291 296 297 301 304 300 301 306 304 302 307 307 302 298 298 300 301 301 301 297 290 289 287 281 277 279 281 281 281 283 288 291 291 290 292 297 300 298 295 295 298 300 296 286 280 278 277 281 287 298 310 318 323 328 333 339 340 340 341 342 342 348 353 356 356 357 7 16
215 197 188 237 219 194 212 231 245 268 269 239 243 265 271 275 283 287 288 289 293 300 304 301 302 307 308 306 306 304 299 297 297 299 299 299 299 296 290 288 285 279 276 277 277 277 279 282 284 285 286 287 289 293 296 293 291 290 292 296 295 284 278 277 276 278 285 294 305 314 321 326 333 339 340 340 340 341 343 347 352 357 357 0 14 22
231 211 171 210 241 255 267 258 253 264 271 269 267 272 277 284 291 294 293 292 296 303 306 303 303 305 306 306 304 299 297 296 295 296 297 298 298 295 290 286 282 275 271 271 273 276 278 278 278 280 283 285 287 292 294 290 289 288 288 291 293 285 276 274 274 276 282 289 298 309 318 325 332 337 339 342 341 340 342 346 350 356 359 4 19 23
254 213 195 233 257 300 274 257 244 252 264 272 279 282 284 290 295 298 298 298 302 306 307 305 304 303 304 305 302 297 295 294 291 293 296 297 296 292 286 281 277 271 269 271 274 275 273 272 275 278 280 282 285 291 293 290 288 286 283 285 290 286 275 271 271 272 275 283 292 303 314 323 331 335 338 343 342 341 344 346 348 354 0 7 18 20
258 171 191 230 222 218 258 270 271 271 274 281 284 284 287 297 304 305 305 305 306 306 306 305 304 302 304 306 303 296 293 291 289 290 293 294 292 288 282 279 275 271 269 270 270 270 270 272 277 279 280 281 283 289 292 291 288 284 279 280 285 284 275 268 267 269 272 277 285 296 309 321 330 338 342 345 343 342 347 350 350 354 3 10 18 18
194 181 199 212 242 259 270 277 279 280 284 292 296 297 300 307 310 310 310 310 309 308 309 309 307 306 306 305 301 296 292 290 289 290 292 291 289 286 283 280 277 272 270 269 270 271 273 275 277 279 280 280 280 285 291 292 288 283 278 276 279 280 274 266 262 265 269 272 280 292 305 317 328 339 348 352 348 342 344 352 356 358 4 12 23 22
210 230 202 150 283 275 263 269 278 285 291 296 303 309 311 311 311 310 310 312 313 313 313 313 311 309 307 304 300 296 291 290 291 292 291 289 289 288 287 284 279 273 270 269 270 271 273 276 277 278 278 277 276 281 287 290 288 284 278 274 275 276 272 264 260 262 266 268 275 288 302 315 326 338 349 357 359 350 344 347 353 359 4 10 22 27
222 224 206 186 220 250 265 277 286 290 284 291 301 307 309 311 313 311 312 315 316 316 316 314 311 310 309 307 304 297 292 293 295 295 292 290 290 291 290 286 281 276 272 270 270 271 274 276 275 275 275 274 273 276 282 286 288 290 285 276 274 274 270 264 260 262 265 266 271 282 297 311 323 333 344 354 2 2 355 347 344 349 0 10 17 22